EW5975 Weather Reports


Display with metric or nautical units.
time (UTC)temp
F
wind
direction
speed
MPH
gust
MPH
rain 1hr
in
rain 24hr
in
rain mn
in
humidity
%
barometer
mb
20260901231017 70 0.0 0.0 0.00 0.00 0.00 73 1018.6
20260901230017 70 0.0 0.0 0.00 0.00 0.00 72 1018.6
20260901225037 70 0.0 0.0 0.00 0.00 0.00 71 1018.6
20260901224017 70 0.0 0.0 0.00 0.00 0.00 71 1018.6
20260901223037 70 0.0 0.0 0.00 0.00 0.00 71 1018.6
20260901222016 70 0.0 0.0 0.00 0.00 0.00 70 1018.4
20260901221017 71 0.0 0.0 0.00 0.00 0.00 71 1018.5
20260901220017 71 0.0 0.0 0.00 0.00 0.00 71 1018.4
20260901215037 71 0.0 0.0 0.00 0.00 0.00 71 1018.4
20260901214016 71 0.0 0.0 0.00 0.00 0.00 71 1018.4
20260901213016 71 0.0 1.0 0.00 0.00 0.00 71 1018.3
20260901212016 71 0.0 0.0 0.00 0.00 0.00 72 1018.3
20260901211017 71 0.0 0.0 0.00 0.00 0.00 72 1018.4
20260901210016 72 0.0 0.0 0.00 0.00 0.00 72 1018.3
20260901205017 72 0.0 0.0 0.00 0.00 0.00 72 1018.3
20260901204017 72 0.0 1.0 0.00 0.00 0.00 72 1018.3
20260901203036 72 0.0 1.0 0.00 0.00 0.00 72 1018.3
20260901202036 72 0.0 0.0 0.00 0.00 0.00 72 1018.2
20260901201016 73 0.0 1.0 0.00 0.00 0.00 72 1018.2
20260901200016 73 0.0 0.0 0.00 0.00 0.00 72 1018.0
20260901195016 73 0.0 1.0 0.00 0.00 0.00 73 1018.0
20260901194016 73 0.0 0.0 0.00 0.00 0.00 72 1017.9
20260901193017 74 0.0 0.0 0.00 0.00 0.00 71 1017.8
20260901192016 74 0.0 0.0 0.00 0.00 0.00 71 1017.8
20260901191016 74 0.0 0.0 0.00 0.00 0.00 71 1017.7
20260901190018 75 0.0 0.0 0.00 0.00 0.00 71 1017.4
20260901185038 75 0.0 0.0 0.00 0.00 0.00 71 1017.4
20260901184016 75 0.0 0.0 0.00 0.00 0.00 71 1017.4
20260901183016 75 0.0 1.0 0.00 0.00 0.00 72 1017.3
20260901182016 76 0.0 1.0 0.00 0.00 0.00 71 1017.2
20260901181016 77 0.0 0.0 0.00 0.00 0.00 69 1017.2
20260901180016 77 0.0 0.0 0.00 0.00 0.00 68 1017.3
20260901175016 78 0.0 0.0 0.00 0.00 0.00 67 1017.4
20260901174017 79 0.0 0.0 0.00 0.00 0.00 66 1017.3
20260901173016 80 0.0 0.0 0.00 0.00 0.00 64 1017.3
20260901172016 81 0.0 0.0 0.00 0.00 0.00 62 1017.3
20260901171016 82 0.0 0.0 0.00 0.00 0.00 61 1017.3
20260901170017 83 0.0 1.0 0.00 0.00 0.00 59 1017.4
20260901165016 84 0.0 1.0 0.00 0.00 0.00 57 1017.5
20260901164016 85 158 1.0 2.0 0.00 0.00 0.00 56 1017.3
20260901163015 85 135 2.0 5.0 0.00 0.00 0.00 56 1017.3
20260901162016 86 135 1.0 3.0 0.00 0.00 0.00 56 1017.3
20260901161016 86 158 1.0 3.0 0.00 0.00 0.00 54 1017.4
20260901160015 86 135 1.0 4.0 0.00 0.00 0.00 55 1017.4
20260901155036 85 113 1.0 2.0 0.00 0.00 0.00 55 1017.2
20260901154057 86 135 1.0 4.0 0.00 0.00 0.00 55 1017.3
20260901153036 86 225 1.0 4.0 0.00 0.00 0.00 54 1017.2
20260901152037 87 158 2.0 5.0 0.00 0.00 0.00 52 1017.3
20260901151015 87 248 2.0 5.0 0.00 0.00 0.00 53 1017.3
20260901150016 87 135 1.0 5.0 0.00 0.00 0.00 52 1017.2
20260901145016 87 180 2.0 6.0 0.00 0.00 0.00 52 1017.3
20260901144015 87 135 2.0 6.0 0.00 0.00 0.00 51 1017.3
20260901143015 86 135 1.0 3.0 0.00 0.00 0.00 51 1017.3
20260901142017 86 135 2.0 7.0 0.00 0.00 0.00 53 1017.3
20260901141017 85 158 3.0 7.0 0.00 0.00 0.00 53 1017.4
20260901140019 85 158 2.0 4.0 0.00 0.00 0.00 56 1017.5
20260901135017 84 158 2.0 5.0 0.00 0.00 0.00 57 1017.5
20260901134037 83 158 2.0 5.0 0.00 0.00 0.00 60 1017.5
20260901133018 84 135 2.0 6.0 0.00 0.00 0.00 58 1017.6
20260901132017 84 135 2.0 7.0 0.00 0.00 0.00 57 1017.6
20260901131017 85 135 2.0 7.0 0.00 0.00 0.00 55 1017.6
20260901130018 86 158 2.0 6.0 0.00 0.00 0.00 56 1017.8
20260901125017 85 158 2.0 7.0 0.00 0.00 0.00 57 1017.7
20260901124017 86 180 2.0 5.0 0.00 0.00 0.00 55 1017.9
20260901123017 87 135 2.0 7.0 0.00 0.00 0.00 54 1017.8
20260901122017 88 135 2.0 6.0 0.00 0.00 0.00 52 1017.9
20260901121017 88 158 3.0 8.0 0.00 0.00 0.00 53 1017.8
20260901120018 88 158 3.0 8.0 0.00 0.00 0.00 51 1017.8
20260901115017 87 158 3.0 9.0 0.00 0.00 0.00 50 1017.7
20260901114017 87 158 2.0 7.0 0.00 0.00 0.00 50 1017.8
20260901113017 88 248 3.0 7.0 0.00 0.00 0.00 48 1017.7
20260901112017 88 248 2.0 5.0 0.00 0.00 0.00 47 1017.7
20260901111017 87 248 2.0 5.0 0.00 0.00 0.00 48 1017.8
20260901110058 87 135 3.0 7.0 0.00 0.00 0.00 48 1017.8
20260901105017 87 135 2.0 7.0 0.00 0.00 0.00 45 1017.7
20260901104037 87 135 1.0 4.0 0.00 0.00 0.00 43 1017.8
20260901103017 87 158 2.0 6.0 0.00 0.00 0.00 44 1017.8
20260901102018 86 158 1.0 5.0 0.00 0.00 0.00 42 1017.8
20260901101037 85 135 1.0 7.0 0.00 0.00 0.00 41 1017.8
20260901100017 85 248 2.0 5.0 0.00 0.00 0.00 42 1017.9
20260901095017 84 225 1.0 3.0 0.00 0.00 0.00 44 1017.8
20260901094017 84 135 2.0 5.0 0.00 0.00 0.00 45 1017.9
20260901093037 83 113 2.0 5.0 0.00 0.00 0.00 45 1017.9
20260901092017 83 135 1.0 4.0 0.00 0.00 0.00 50 1017.9
20260901091017 82 158 1.0 3.0 0.00 0.00 0.00 50 1017.8
20260901090017 82 225 1.0 4.0 0.00 0.00 0.00 51 1017.8
20260901085017 82 135 1.0 3.0 0.00 0.00 0.00 53 1017.7
20260901084016 81 225 1.0 2.0 0.00 0.00 0.00 53 1017.5
20260901083037 80 158 1.0 3.0 0.00 0.00 0.00 53 1017.5
20260901082016 79 0.0 2.0 0.00 0.00 0.00 53 1017.6
20260901081017 78 0.0 2.0 0.00 0.00 0.00 54 1017.4
20260901080015 78 248 1.0 2.0 0.00 0.00 0.00 52 1017.2
20260901075016 77 158 1.0 2.0 0.00 0.00 0.00 49 1017.2
20260901074037 77 158 1.0 2.0 0.00 0.00 0.00 50 1017.0
20260901073057 75 135 1.0 3.0 0.00 0.00 0.00 52 1017.1
20260901072038 73 0.0 0.0 0.00 0.00 0.00 55 1017.1
20260901071016 72 0.0 0.0 0.00 0.00 0.00 55 1017.1
20260901070016 72 0.0 1.0 0.00 0.00 0.00 56 1017.2
20260901065016 70 0.0 2.0 0.00 0.00 0.00 62 1016.9
20260901064016 69 0.0 1.0 0.00 0.00 0.00 61 1017.0
20260901063016 67 0.0 0.0 0.00 0.00 0.00 64 1016.9
20260901062016 66 0.0 1.0 0.00 0.00 0.00 63 1016.8
20260901061016 65 0.0 0.0 0.00 0.00 0.00 65 1016.7
20260901060016 65 0.0 0.0 0.00 0.00 0.00 61 1016.8
20260901055036 65 0.0 0.0 0.00 0.00 0.00 60 1016.6
20260901054039 65 0.0 0.0 0.00 0.00 0.00 59 1016.5
20260901053016 65 0.0 1.0 0.00 0.00 0.00 56 1016.5
20260901052058 64 0.0 0.0 0.00 0.00 0.00 51 1016.5
20260901051016 64 0.0 1.0 0.00 0.00 0.00 51 1016.4
20260901050036 64 0.0 1.0 0.00 0.00 0.00 50 1016.4
20260901045016 64 0.0 1.0 0.00 0.00 0.00 48 1016.3
20260901044016 64 0.0 1.0 0.00 0.00 0.00 45 1016.3
20260901043016 65 0.0 1.0 0.00 0.00 0.00 46 1016.2
20260901042016 65 0.0 0.0 0.00 0.00 0.00 46 1016.1
20260901041036 65 0.0 0.0 0.00 0.00 0.00 45 1016.0
20260901040016 65 0.0 3.0 0.00 0.00 0.00 46 1016.0
20260901035016 65 0.0 0.0 0.00 0.00 0.00 45 1015.8
20260901034016 65 0.0 1.0 0.00 0.00 0.00 46 1015.9
20260901033015 65 0.0 2.0 0.00 0.00 0.00 47 1015.9
20260901032015 65 0.0 1.0 0.00 0.00 0.00 47 1016.1
20260901031016 65 0.0 1.0 0.00 0.00 0.00 49 1016.1
20260901030036 65 0.0 0.0 0.00 0.00 0.00 52 1016.3
20260901025016 65 0.0 0.0 0.00 0.00 0.00 55 1016.3
20260901024017 65 0.0 0.0 0.00 0.00 0.00 52 1016.2
20260901023016 65 0.0 0.0 0.00 0.00 0.00 53 1016.3
20260901022015 66 0.0 0.0 0.00 0.00 0.00 58 1016.3
20260901021016 66 0.0 0.0 0.00 0.00 0.00 62 1016.3
20260901020015 66 0.0 0.0 0.00 0.00 0.00 62 1016.3
20260901015015 66 0.0 0.0 0.00 0.00 0.00 60 1016.2
20260901014017 66 0.0 0.0 0.00 0.00 0.00 56 1016.2
20260901013017 66 0.0 0.0 0.00 0.00 0.00 54 1016.1
20260901012018 66 0.0 0.0 0.00 0.00 0.00 53 1016.0
20260901011017 66 0.0 1.0 0.00 0.00 0.00 53 1015.9
20260901010037 66 0.0 0.0 0.00 0.00 0.00 55 1015.9
20260901005017 66 0.0 1.0 0.00 0.00 0.00 53 1015.9
20260901004017 66 0.0 1.0 0.00 0.00 0.00 53 1015.9
20260901003039 66 0.0 0.0 0.00 0.00 0.00 55 1015.9
20260901002017 66 0.0 0.0 0.00 0.00 0.00 55 1015.9
20260901001018 66 0.0 0.0 0.00 0.00 0.00 56 1015.9
20260901000017 66 0.0 0.0 0.00 0.00 0.00 57 1015.8
20260831235017 66 0.0 0.0 0.00 0.00 0.00 60 1016.0
20260831234017 66 0.0 0.0 0.00 0.00 0.00 62 1016.1
20260831233037 67 0.0 0.0 0.00 0.00 0.00 62 1016.2
20260831232017 67 0.0 0.0 0.00 0.00 0.00 63 1016.2